sat.trackr.live / text

‹ back to catalog

STARLINK-31390

NORAD 58937 · 2024-027G

PAYLOAD ACTIVE UNKNOWN

§ Identity

Operator
Country
US
Launch date
2024-02-10
Launch site
AFWTR
Launch vehicle
Mass (kg)
RCS (m²)

Purposes: comms

External: N2YO · Heavens-Above · Gunter

§ Orbital elements

Epoch: 2026-05-25T03:57:44.048160Z

Period
94.11 min
Inclination
53.1610°
Eccentricity
0.0001026
Mean motion
15.30198432 rev/d
Perigee alt
474.5 km
Apogee alt
475.9 km
Semi-major
6,853.4 km
B*
3.0498e-5
RAAN
314.6433°
Arg perigee
86.2031°
Mean anomaly
273.9087°
Rev number
12,903

§ Raw data

STARLINK-313901 58937U 24027G   26145.16509315  .00000544  00000+0  30498-4 0  99952 58937  53.1610 314.6433 0001026  86.2031 273.9087 15.30198432129030

JSON: /api/v1/satellites/58937 · /tle

For live sub-satellite position, see the globe view (requires WebGL).

§ Visibility from observer

Set your observer location to see the next 7 days of passes ≥ 10°. The values pass through the URL so the page stays shareable.

No JS? Fill the form by hand. The geolocation button needs JavaScript.